TimeCET,TemperatureF,Dew PointF,Humidity,Sea Level PressureIn,VisibilityMPH,Wind Direction,Wind SpeedMPH,Gust SpeedMPH,PrecipitationIn,Events,Conditions,WindDirDegrees,DateUTC
12:00 AM,59.0,44.6,59,30.18,-9999.0,West,15.0,-,N/A,,Clear,280,2013-02-05 23:00:00
12:30 AM,59.0,44.6,59,30.18,-9999.0,WNW,15.0,-,N/A,,Clear,290,2013-02-05 23:30:00
1:00 AM,59,44,47,30.19,9,WNW,16.1,,,,,290,2013-02-06 00:00:00
1:00 AM,59.0,44.6,59,30.18,-9999.0,WNW,16.1,-,N/A,,Clear,290,2013-02-06 00:00:00
1:30 AM,59.0,44.6,59,30.18,-9999.0,WNW,18.4,-,N/A,,Clear,290,2013-02-06 00:30:00
2:00 AM,59.0,44.6,59,30.18,-9999.0,WNW,19.6,-,N/A,,Clear,290,2013-02-06 01:00:00
3:00 AM,57.2,46.4,67,30.15,-9999.0,West,16.1,-,N/A,,Clear,280,2013-02-06 02:00:00
3:30 AM,57.2,44.6,63,30.12,-9999.0,WNW,13.8,25.3,N/A,,Clear,290,2013-02-06 02:30:00
4:00 AM,57.2,44.6,63,30.12,-9999.0,WNW,16.1,27.6,N/A,,Clear,290,2013-02-06 03:00:00
4:30 AM,57.2,44.6,63,30.12,-9999.0,West,21.9,33.4,N/A,,Clear,280,2013-02-06 03:30:00
5:00 AM,57.2,44.6,63,30.12,-9999.0,West,19.6,-,N/A,,Clear,280,2013-02-06 04:00:00
5:30 AM,57.2,44.6,63,30.12,-9999.0,West,18.4,-,N/A,,Clear,280,2013-02-06 04:30:00
6:00 AM,55.4,44.6,67,30.12,-9999.0,West,18.4,-,N/A,,Clear,270,2013-02-06 05:00:00
6:30 AM,55.4,44.6,67,30.12,-9999.0,WNW,18.4,-,N/A,,Clear,290,2013-02-06 05:30:00
7:00 AM,57,44,50,30.13,9,NW,12.7,,,,,310,2013-02-06 06:00:00
7:00 AM,55.4,42.8,63,30.12,-9999.0,NW,12.7,-,N/A,,Clear,310,2013-02-06 06:00:00
7:30 AM,55.4,42.8,63,30.12,-9999.0,NW,16.1,-,N/A,,Clear,310,2013-02-06 06:30:00
8:00 AM,55.4,42.8,63,30.12,6.2,NW,16.1,29.9,N/A,,Partly Cloudy,320,2013-02-06 07:00:00
8:30 AM,55.4,41.0,58,30.15,6.2,NW,11.5,-,N/A,,Partly Cloudy,310,2013-02-06 07:30:00
9:30 AM,55.4,42.8,63,30.18,6.2,NW,13.8,-,N/A,,Partly Cloudy,320,2013-02-06 08:30:00
10:00 AM,55.4,42.8,63,30.18,6.2,NW,18.4,29.9,N/A,,Partly Cloudy,310,2013-02-06 09:00:00
10:30 AM,57.2,39.2,51,30.18,6.2,WNW,20.7,-,N/A,,Partly Cloudy,290,2013-02-06 09:30:00
11:00 AM,57.2,35.6,44,30.18,6.2,WNW,19.6,32.2,N/A,,Partly Cloudy,290,2013-02-06 10:00:00
11:30 AM,59.0,35.6,42,30.18,6.2,WNW,21.9,34.5,N/A,,Partly Cloudy,300,2013-02-06 10:30:00
12:00 PM,59.0,35.6,42,30.15,6.2,WNW,20.7,40.3,N/A,,Partly Cloudy,300,2013-02-06 11:00:00
12:30 PM,59.0,35.6,42,30.15,6.2,NW,20.7,39.1,N/A,,Partly Cloudy,310,2013-02-06 11:30:00
1:00 PM,60.8,37.4,42,30.12,6.2,WNW,20.7,32.2,N/A,,Partly Cloudy,300,2013-02-06 12:00:00
1:30 PM,60.8,37.4,42,30.12,6.2,WNW,19.6,36.8,N/A,,Partly Cloudy,300,2013-02-06 12:30:00
2:00 PM,60.8,37.4,42,30.12,6.2,WNW,21.9,34.5,N/A,,Partly Cloudy,300,2013-02-06 13:00:00
2:30 PM,60.8,35.6,39,30.12,6.2,NW,18.4,32.2,N/A,,Partly Cloudy,310,2013-02-06 13:30:00
3:00 PM,60.8,35.6,39,30.12,6.2,WNW,19.6,35.7,N/A,,Partly Cloudy,300,2013-02-06 14:00:00
3:30 PM,60.8,35.6,39,30.09,6.2,NW,21.9,34.5,N/A,,Partly Cloudy,320,2013-02-06 14:30:00
4:00 PM,60.8,33.8,36,30.09,6.2,NW,21.9,42.6,N/A,,Scattered Clouds,320,2013-02-06 15:00:00
4:30 PM,60.8,33.8,36,30.09,6.2,NW,19.6,34.5,N/A,,Scattered Clouds,310,2013-02-06 15:30:00
5:00 PM,60.8,32.0,34,30.12,6.2,NW,18.4,33.4,N/A,,Scattered Clouds,310,2013-02-06 16:00:00
5:30 PM,60.8,32.0,34,30.09,6.2,NW,19.6,34.5,N/A,,Partly Cloudy,320,2013-02-06 16:30:00
6:30 PM,57.2,32.0,38,30.12,6.2,WNW,16.1,27.6,N/A,,Partly Cloudy,300,2013-02-06 17:30:00
7:00 PM,59,37,32,30.12,22,WNW,12.7,,,,Scattered Clouds,300,2013-02-06 18:00:00
7:00 PM,57.2,32.0,38,30.12,6.2,WNW,12.7,-,N/A,,Partly Cloudy,300,2013-02-06 18:00:00
7:30 PM,55.4,32.0,41,30.12,6.2,WNW,13.8,-,N/A,,Partly Cloudy,300,2013-02-06 18:30:00
8:00 PM,55.4,32.0,41,30.15,6.2,WNW,12.7,-,N/A,,Partly Cloudy,300,2013-02-06 19:00:00
8:30 PM,55.4,32.0,41,30.15,6.2,WNW,12.7,26.5,N/A,,Partly Cloudy,300,2013-02-06 19:30:00
9:00 PM,53.6,33.8,47,30.15,6.2,WNW,12.7,-,N/A,,Partly Cloudy,300,2013-02-06 20:00:00
9:30 PM,53.6,32.0,44,30.15,6.2,NW,12.7,-,N/A,,Partly Cloudy,310,2013-02-06 20:30:00
10:00 PM,55.4,32.0,41,30.15,6.2,WNW,15.0,27.6,N/A,,Partly Cloudy,300,2013-02-06 21:00:00
10:30 PM,51.8,32.0,47,30.18,6.2,WNW,11.5,-,N/A,,Partly Cloudy,300,2013-02-06 21:30:00
11:00 PM,51.8,32.0,47,30.18,-9999.0,WNW,10.4,-,N/A,,Clear,300,2013-02-06 22:00:00
11:30 PM,51.8,32.0,47,30.18,-9999.0,WNW,11.5,-,N/A,,Clear,300,2013-02-06 22:30:00